SP9EPI-13 Weather Reports


time (UTC)temp
C
wind
direction
speed
KPH
gust
KPH
rain 1hr
cm
rain 24hr
cm
rain mn
cm
humidity
%
barometer
mb
20260905222001 15 258 6.4 0.0 0.00 0.00 0.00 99 1017.9
20260905220000 16 269 46.7 0.0 0.00 0.00 0.03 95 1017.6
20260905214001 17 305 35.4 0.0 0.00 0.00 0.03 89 1017.6
20260905212000 17 213 3.2 0.0 0.00 0.00 0.03 90 1016.9
20260905210001 17 220 6.4 0.0 0.00 0.00 0.03 89 1016.5
20260905204000 17 215 17.7 0.0 0.00 0.00 0.03 88 1016.5
20260905202001 17 198 11.3 0.0 0.00 0.00 0.03 89 1016.5
20260905200001 17 180 11.3 0.0 0.00 0.00 0.03 88 1016.2
20260905194001 17 244 6.4 0.0 0.00 0.00 0.03 90 1015.9
20260905192000 17 164 6.4 0.0 0.00 0.00 0.03 91 1015.9
20260905190000 17 179 3.2 0.0 0.00 0.00 0.03 86 1015.9
20260905184000 17 196 6.4 0.0 0.00 0.00 0.03 85 1015.9
20260905182000 18 239 11.3 0.0 0.00 0.00 0.03 84 1015.9
20260905180001 18 228 0.0 0.0 0.00 0.00 0.03 83 1015.2
20260905174000 18 90 14.5 0.0 0.00 0.00 0.03 84 1014.9
20260905172001 18 271 11.3 0.0 0.00 0.00 0.03 82 1014.9
20260905170001 20 98 0.0 0.0 0.00 0.00 0.03 81 1014.5
20260905164000 21 195 14.5 0.0 0.00 0.00 0.03 77 1014.5
20260905162001 21 315 11.3 0.0 0.00 0.00 0.03 76 1014.5
20260905160000 22 289 25.7 0.0 0.00 0.00 0.03 74 1014.2
20260905154000 22 237 35.4 0.0 0.00 0.00 0.03 72 1014.2
20260905152001 23 241 14.5 0.0 0.00 0.00 0.03 71 1014.2
20260905150000 22 25 17.7 0.0 0.00 0.00 0.03 75 1014.2
20260905144000 22 35 40.2 0.0 0.00 0.00 0.03 75 1014.2
20260905142000 22 252 20.9 0.0 0.00 0.00 0.03 74 1014.2
20260905140000 22 246 25.7 0.0 0.00 0.00 0.03 73 1014.2
20260905134000 23 244 40.2 0.0 0.00 0.00 0.03 71 1014.2
20260905132001 22 45 20.9 0.0 0.00 0.00 0.03 79 1014.2
20260905130000 21 290 25.7 0.0 0.00 0.00 0.03 82 1014.2
20260905124000 22 250 20.9 0.0 0.00 0.00 0.03 78 1014.2
20260905122000 23 214 46.7 0.0 0.00 0.00 0.03 78 1014.2
20260905120000 23 235 54.7 0.0 0.00 0.00 0.03 76 1014.2
20260905114000 23 213 25.7 0.0 0.00 0.00 0.03 78 1014.2
20260905112000 22 288 25.7 0.0 0.00 0.00 0.03 81 1014.2
20260905110000 21 231 49.9 0.0 0.00 0.00 0.03 88 1014.2
20260905104000 22 202 69.2 0.0 0.00 0.00 0.03 84 1014.2
20260905102000 20 225 49.9 0.0 0.00 0.00 0.03 93 1014.2
20260905100000 18 196 25.7 0.0 0.00 0.00 0.03 99 1014.2
20260905094000 21 237 54.7 0.0 0.00 0.00 0.03 95 1014.2
20260905092001 18 243 40.2 0.0 0.00 0.00 0.03 99 1014.5
20260905090000 17 227 35.4 0.0 0.00 0.00 0.03 99 1014.5
20260905084000 17 204 20.9 0.0 0.00 0.00 0.03 99 1014.5
20260905082000 17 246 43.5 0.0 0.00 0.00 0.03 99 1014.5
20260905080000 17 278 25.7 0.0 0.00 0.00 0.03 99 1014.2
20260905074000 17 239 14.5 0.0 0.00 0.00 0.03 99 1014.2
20260905072000 17 289 6.4 0.0 0.00 0.00 0.03 99 1014.2
20260905070001 16 309 20.9 0.0 0.00 0.00 0.03 99 1014.2
20260905064001 16 254 32.2 0.0 0.00 0.00 0.03 99 1013.5
20260905062000 17 215 43.5 0.0 0.00 0.00 0.00 99 1013.8
20260905060000 17 235 29.0 0.0 0.00 0.00 0.00 99 1013.2
20260905054000 17 181 25.7 0.0 0.00 0.00 0.00 99 1012.5
20260905052000 17 235 40.2 0.0 0.00 0.00 0.00 99 1012.5
20260905050000 17 273 20.9 0.0 0.00 0.00 0.00 99 1012.5
20260905044000 17 240 29.0 0.0 0.00 0.00 0.00 99 1011.8
20260905042000 17 234 25.7 0.0 0.00 0.00 0.00 99 1011.5
20260905040000 17 304 29.0 0.0 0.00 0.00 0.00 99 1011.5
20260905034000 17 211 25.7 0.0 0.00 0.00 0.00 99 1011.5
20260905032000 17 254 29.0 0.0 0.00 0.00 0.00 99 1011.5
20260905030000 17 225 35.4 0.0 0.00 0.00 0.00 99 1011.5
20260905024001 17 258 25.7 0.0 0.00 0.00 0.00 99 1011.5
20260905022001 17 238 40.2 0.0 0.00 0.00 0.00 99 1011.5
20260905020000 17 227 25.7 0.0 0.00 0.00 0.00 99 1011.5
20260905014000 17 240 14.5 0.0 0.00 0.00 0.00 99 1011.5
20260905012000 17 199 14.5 0.0 0.00 0.00 0.00 99 1011.5
20260905010001 18 274 20.9 0.0 0.00 0.00 0.00 99 1010.8
20260905004001 21 175 11.3 0.0 0.00 0.00 0.00 92 1009.8
20260905002000 21 277 11.3 0.0 0.00 0.00 0.00 95 1009.1
20260905000001 22 232 3.2 0.0 0.00 0.00 0.00 99 1008.8
20260904234000 22 236 11.3 0.0 0.00 0.00 0.00 99 1008.4
20260904232001 22 43 11.3 0.0 0.00 0.00 0.00 90 1007.7
20260904230000 25 265 32.2 0.0 0.00 0.00 0.00 78 1006.4
20260904224001 26 224 46.7 0.0 0.00 0.00 0.00 78 1006.4